Flag for U.S.A. Weather past 2 weeks in Palo Alto, California, U.S.A.

Now
56 °F

Overcast.


Feels Like: 56 °F
Forecast: 55 / 69 °F
Wind: 3 mph from Northwest

Location: Moffett Field

Current Time: May 25, 2015 at 4:39:09 AM

Latest Report: May 25, 2015 at 3:56 AM


Visibility: 10 mi

Pressure: 29.97 "Hg

Humidity: 77%

Dew point: 49 °F

Location of Palo AltoLocation

Historic Weather in Palo Alto — Graph

°F

Palo Alto temperature yesterday

Maximum temperature yesterday: 67 °F (at 12:56 PM)
Minimum temperature yesterday: 52 °F (at 5:56 AM)
Average temperature yesterday: 59 °F

Past Weeks' High & Low Weather Summary

 TemperatureHumidityPressure
High67 °F (May 13, 2:56 PM)93% (May 15, 5:56 AM)30.14 "Hg (May 15, 5:56 AM)
Low48 °F (May 12, 4:56 AM)35% (May 12, 4:56 PM)29.81 "Hg (May 14, 3:56 PM)
Average58 °F68%30.01 "Hg
* Reported May 10 2:56 AM — May 25 2:56 AM, Palo Alto, Weather by CustomWeather, © 2015

Note: Actual official high and low records may vary slightly from our data, if they occured in-between our weather recording intervals... More about our weather records

Advertising

Palo Alto weather history for previous 24 hours

 ConditionsComfort  
Time TempWeatherWind HumidityBarometerVisibility
2:56 AM
Mon, May 25
56 °FOvercast.5 mph77%29.97 "Hg10 mi
1:56 AM56 °FOvercast.5 mph77%29.98 "Hg10 mi
12:56 AM56 °FOvercast.7 mph77%29.99 "Hg10 mi
11:56 PM
Sun, May 24
56 °FOvercast.7 mph77%30.00 "Hg10 mi
10:56 PM57 °FOvercast.6 mph78%30.01 "Hg10 mi
9:56 PM56 °FOvercast.5 mph81%30.01 "Hg10 mi
8:56 PM56 °FSunny.8 mph81%30.00 "Hg10 mi
7:56 PM57 °FSunny.10 mph81%29.98 "Hg10 mi
6:56 PM59 °FSunny.15 mph75%29.98 "Hg10 mi
5:56 PM62 °FSunny.14 mph67%29.98 "Hg10 mi
4:56 PM63 °FSunny.17 mph68%29.98 "Hg10 mi
3:56 PM65 °FSunny.20 mph61%29.98 "Hg10 mi
2:56 PM67 °FSunny.20 mph61%30.00 "Hg10 mi
1:56 PM67 °FSunny.16 mph61%30.01 "Hg10 mi
12:56 PM67 °FSunny.10 mph61%30.02 "Hg10 mi
11:56 AM66 °FSunny.12 mph61%30.03 "Hg10 mi
10:56 AM64 °FSunny.6 mph61%30.04 "Hg10 mi
9:56 AM62 °FSunny.No wind62%30.04 "Hg10 mi
8:56 AM59 °FSunny.No wind69%30.05 "Hg10 mi
7:56 AM56 °FSunny.No wind77%30.05 "Hg10 mi
6:56 AM54 °FSunny.No wind77%30.04 "Hg10 mi
5:56 AM52 °FClear.No wind80%30.02 "Hg10 mi
4:56 AM53 °FClear.No wind80%30.01 "Hg10 mi
Weather by CustomWeather, © 2015

See weather overviewHow to use our weather pages